Powrót do katalogu

CMS-02

AktywnyŁącznośćGEO
NORAD 52903·PAYLOAD·🇮🇳 India

Wystrzelony Jun 22, 2022 z Guiana Space Centre

Loading…

TLE

ŚwieżeSource: Space-Track

Epoka: Sep 14, 2026, 14:11 UTC

1 52903U 22067A   26257.59156774 -.00000173  00000-0  00000-0 0  9994
2 52903   0.0176 231.7734 0001892  33.1531  24.6103  1.00272581 15501

Śledź CMS-02 w czasie rzeczywistym z AllMySat

Download on the App Store